CND5989 EHAM-TNCC

Flight info

Callsign CND5989
Flight time N/A
Altitude 36000
Route IDRID L980 MANGO DCT ENHAQ DCT GAJIT DCT GAPLI/M084F360 DCT OMOKO DCT 48N015W 47N020W 43N030W/M084F380 37N040W 31N050W/M084F400 DCT FIVZE DCT OPAUL/N0482F400 L327 SCAPA SCAPA1B
Aircraft A359/H-SDE2E3GHIJ3J4J5LM1ORWXY/LB1D1

Departure

Time 2026-05-05 06:10
Airport Amsterdam Airport Schiphol (EHAM)

Arrival

Time N/A
Airport Hato International Airport (TNCC)
Time Latitude Longitude Altitude Speed Heading
2026-05-05 05:57 52.31164 4.76787 5 ft 5 kts 303°
2026-05-05 05:58 52.31162 4.76791 6 ft 4 kts 303°
2026-05-05 05:58 52.31147 4.76827 5 ft 4 kts 306°
2026-05-05 05:58 52.31133 4.76856 5 ft 2 kts 313°
2026-05-05 05:59 52.31115 4.76885 5 ft 4 kts 327°
2026-05-05 05:59 52.31104 4.76892 5 ft 1 kts 33°
2026-05-05 05:59 52.31119 4.76908 5 ft 4 kts 33°
2026-05-05 05:59 52.31141 4.76932 5 ft 4 kts 33°
2026-05-05 06:00 52.31159 4.76950 5 ft 0 kts 33°
2026-05-05 06:00 52.31179 4.76973 5 ft 1 kts 33°
2026-05-05 06:00 52.31180 4.76973 5 ft 0 kts 33°
2026-05-05 06:03 52.31183 4.76977 5 ft 2 kts 33°
2026-05-05 06:04 52.31205 4.77001 5 ft 6 kts 33°
2026-05-05 06:04 52.31255 4.77054 5 ft 11 kts 33°
2026-05-05 06:04 52.31329 4.77133 5 ft 15 kts 33°
2026-05-05 06:04 52.31430 4.77193 5 ft 17 kts
2026-05-05 06:05 52.31540 4.77189 5 ft 14 kts 334°
2026-05-05 06:05 52.31566 4.77042 5 ft 15 kts 268°
2026-05-05 06:05 52.31561 4.76858 5 ft 17 kts 266°
2026-05-05 06:05 52.31552 4.76650 5 ft 19 kts 266°
2026-05-05 06:06 52.31544 4.76420 5 ft 21 kts 266°
2026-05-05 06:06 52.31535 4.76172 5 ft 22 kts 266°
2026-05-05 06:06 52.31526 4.75916 5 ft 23 kts 266°
2026-05-05 06:06 52.31516 4.75660 5 ft 23 kts 266°
2026-05-05 06:07 52.31508 4.75396 5 ft 24 kts 267°
2026-05-05 06:07 52.31500 4.75125 5 ft 24 kts 267°
2026-05-05 06:07 52.31493 4.74873 5 ft 20 kts 267°
2026-05-05 06:07 52.31497 4.74714 5 ft 10 kts 296°
2026-05-05 06:08 52.31555 4.74665 5 ft 10 kts 352°
2026-05-05 06:08 52.31623 4.74672 6 ft 10 kts 16°
2026-05-05 06:08 52.31665 4.74749 6 ft 10 kts 73°
2026-05-05 06:08 52.31670 4.74875 4 ft 16 kts 88°
2026-05-05 06:09 52.31685 4.75339 3 ft 70 kts 87°
2026-05-05 06:09 52.31723 4.76433 5 ft 121 kts 87°
2026-05-05 06:09 52.31783 4.78063 35 ft 162 kts 86°
2026-05-05 06:09 52.31832 4.79877 575 ft 156 kts 86°
2026-05-05 06:10 52.31606 4.81599 1000 ft 163 kts 124°
2026-05-05 06:10 52.30595 4.82589 1185 ft 185 kts 169°
2026-05-05 06:10 52.29268 4.82278 1363 ft 204 kts 198°
2026-05-05 06:10 52.27873 4.81392 1569 ft 223 kts 202°
2026-05-05 06:11 52.26438 4.80397 2013 ft 230 kts 206°
2026-05-05 06:11 52.25041 4.79012 2379 ft 243 kts 214°
2026-05-05 06:11 52.23601 4.77376 2628 ft 261 kts 215°
2026-05-05 06:11 52.22094 4.75645 3105 ft 268 kts 215°
2026-05-05 06:12 52.20649 4.73685 3615 ft 273 kts 230°
2026-05-05 06:12 52.19565 4.71142 4241 ft 274 kts 240°
2026-05-05 06:12 52.18602 4.68469 4888 ft 273 kts 241°
2026-05-05 06:12 52.17646 4.65798 5525 ft 273 kts 240°
2026-05-05 06:13 52.16686 4.63134 6097 ft 274 kts 240°
2026-05-05 06:13 52.15709 4.60459 6693 ft 275 kts 240°
2026-05-05 06:13 52.14739 4.57815 7246 ft 277 kts 240°
2026-05-05 06:13 52.13745 4.55114 7765 ft 280 kts 240°
2026-05-05 06:14 52.12741 4.52389 8300 ft 282 kts 239°
2026-05-05 06:14 52.11727 4.49641 8819 ft 284 kts 239°
2026-05-05 06:14 52.10831 4.46763 9324 ft 287 kts 251°
2026-05-05 06:14 52.10447 4.43583 9840 ft 288 kts 264°
2026-05-05 06:15 52.10267 4.40310 10252 ft 295 kts 266°
2026-05-05 06:15 52.10102 4.36913 10465 ft 309 kts 266°
2026-05-05 06:15 52.09922 4.33350 10672 ft 322 kts 266°
2026-05-05 06:15 52.09728 4.29651 10880 ft 335 kts 265°
2026-05-05 06:16 52.09524 4.25851 11083 ft 347 kts 265°
2026-05-05 06:16 52.09306 4.21879 11277 ft 358 kts 265°
2026-05-05 06:16 52.09079 4.17788 11526 ft 367 kts 265°
2026-05-05 06:16 52.08846 4.13638 11917 ft 371 kts 265°
2026-05-05 06:17 52.08609 4.09442 12351 ft 373 kts 265°
2026-05-05 06:17 52.08369 4.05226 12782 ft 376 kts 265°
2026-05-05 06:17 52.08125 4.00986 13230 ft 377 kts 265°
2026-05-05 06:17 52.07879 3.96724 13646 ft 380 kts 265°
2026-05-05 06:18 52.07635 3.92506 14068 ft 381 kts 265°
2026-05-05 06:18 52.07384 3.88213 14485 ft 383 kts 265°
2026-05-05 06:18 52.07011 3.83915 14885 ft 386 kts 257°
2026-05-05 06:18 52.06239 3.79725 15297 ft 388 kts 252°
2026-05-05 06:19 52.05340 3.75582 15705 ft 390 kts 251°
2026-05-05 06:19 52.04421 3.71427 16113 ft 391 kts 251°
2026-05-05 06:19 52.03501 3.67256 16501 ft 393 kts 251°
2026-05-05 06:19 52.02580 3.63069 16903 ft 395 kts 251°
2026-05-05 06:20 52.01655 3.58864 17294 ft 396 kts 251°
2026-05-05 06:20 52.00739 3.54704 17674 ft 398 kts 251°
2026-05-05 06:20 51.99731 3.50519 18053 ft 400 kts 245°
2026-05-05 06:20 51.98354 3.46578 18409 ft 402 kts 238°
2026-05-05 06:21 51.96780 3.42812 18724 ft 406 kts 235°
2026-05-05 06:21 51.95101 3.39125 19089 ft 407 kts 233°
2026-05-05 06:21 51.93385 3.35474 19452 ft 408 kts 233°
2026-05-05 06:21 51.91661 3.31819 19801 ft 409 kts 233°
2026-05-05 06:22 51.89936 3.28128 20137 ft 411 kts 233°
2026-05-05 06:22 51.88220 3.24421 20461 ft 413 kts 233°
2026-05-05 06:22 51.86611 3.20653 20768 ft 414 kts 239°
2026-05-05 06:22 51.85364 3.16448 21097 ft 415 kts 250°
2026-05-05 06:23 51.84630 3.11937 21396 ft 417 kts 258°
2026-05-05 06:23 51.84164 3.07294 21723 ft 419 kts 262°
2026-05-05 06:23 51.83828 3.02615 22010 ft 421 kts 263°
2026-05-05 06:23 51.83548 2.97893 22291 ft 423 kts 264°
2026-05-05 06:24 51.83282 2.93161 22599 ft 424 kts 264°
2026-05-05 06:24 51.83007 2.88394 22876 ft 426 kts 264°
2026-05-05 06:24 51.82720 2.83680 23148 ft 428 kts 263°
2026-05-05 06:24 51.82416 2.78905 23459 ft 429 kts 263°
2026-05-05 06:25 51.82097 2.74094 23735 ft 431 kts 263°
2026-05-05 06:25 51.81770 2.69268 24002 ft 433 kts 263°
2026-05-05 06:25 51.81441 2.64436 24290 ft 434 kts 263°
2026-05-05 06:25 51.81108 2.59571 24584 ft 435 kts 262°
2026-05-05 06:26 51.80770 2.54717 24889 ft 436 kts 262°
2026-05-05 06:26 51.80428 2.49852 25207 ft 436 kts 262°
2026-05-05 06:26 51.80083 2.44982 25489 ft 437 kts 262°
2026-05-05 06:26 51.79737 2.40103 25795 ft 438 kts 262°
2026-05-05 06:27 51.79395 2.35292 26077 ft 439 kts 262°
2026-05-05 06:27 51.78691 2.25469 26676 ft 441 kts 262°
2026-05-05 06:27 51.78338 2.20550 27004 ft 441 kts 262°
2026-05-05 06:28 51.78022 2.15634 27329 ft 441 kts 263°
2026-05-05 06:28 51.77734 2.10683 27618 ft 443 kts 263°
2026-05-05 06:28 51.77456 2.05736 27935 ft 443 kts 263°
2026-05-05 06:28 51.77176 2.00770 28212 ft 445 kts 263°
2026-05-05 06:29 51.76894 1.95859 28498 ft 445 kts 263°
2026-05-05 06:29 51.76601 1.90884 28807 ft 446 kts 263°
2026-05-05 06:29 51.76301 1.85897 29092 ft 447 kts 263°
2026-05-05 06:29 51.75996 1.80906 29376 ft 447 kts 263°
2026-05-05 06:30 51.75686 1.75914 29617 ft 449 kts 263°
2026-05-05 06:30 51.75373 1.70884 29862 ft 450 kts 263°
2026-05-05 06:30 51.75059 1.65856 30110 ft 451 kts 263°
2026-05-05 06:30 51.74742 1.60815 30344 ft 452 kts 262°
2026-05-05 06:31 51.74429 1.55824 30514 ft 455 kts 262°
2026-05-05 06:31 51.74105 1.50734 30672 ft 457 kts 262°
2026-05-05 06:31 51.73775 1.45634 30860 ft 459 kts 262°
2026-05-05 06:31 51.73441 1.40486 31065 ft 461 kts 262°
2026-05-05 06:32 51.73107 1.35340 31236 ft 463 kts 262°
2026-05-05 06:32 51.72767 1.30173 31477 ft 463 kts 262°
2026-05-05 06:32 51.72425 1.25011 31743 ft 463 kts 262°
2026-05-05 06:32 51.72081 1.19857 31937 ft 464 kts 262°
2026-05-05 06:33 51.71732 1.14669 32119 ft 465 kts 262°
2026-05-05 06:33 51.71381 1.09478 32350 ft 465 kts 262°
2026-05-05 06:33 51.71038 1.04376 32587 ft 465 kts 262°
2026-05-05 06:33 51.70684 0.99187 32774 ft 466 kts 261°
2026-05-05 06:34 51.70327 0.93994 32937 ft 467 kts 261°
2026-05-05 06:34 51.69968 0.88773 33098 ft 468 kts 261°
2026-05-05 06:34 51.69606 0.83559 33296 ft 469 kts 262°
2026-05-05 06:34 51.69242 0.78327 33501 ft 469 kts 261°
2026-05-05 06:35 51.68817 0.73128 33667 ft 469 kts 259°
2026-05-05 06:35 51.68285 0.67943 33833 ft 470 kts 258°
2026-05-05 06:35 51.67714 0.62825 33993 ft 470 kts 258°
2026-05-05 06:35 51.67127 0.57639 34191 ft 471 kts 258°
2026-05-05 06:36 51.66546 0.52444 34388 ft 471 kts 258°
2026-05-05 06:36 51.65977 0.47253 34577 ft 471 kts 258°
2026-05-05 06:36 51.65416 0.42057 34734 ft 472 kts 258°
2026-05-05 06:36 51.64857 0.36842 34901 ft 472 kts 258°
2026-05-05 06:37 51.64300 0.31626 35077 ft 472 kts 258°
2026-05-05 06:37 51.63750 0.26491 35276 ft 472 kts 259°
2026-05-05 06:37 51.63192 0.21282 35430 ft 473 kts 259°
2026-05-05 06:37 51.62654 0.16301 35584 ft 473 kts 258°
2026-05-05 06:38 51.62076 0.10968 35756 ft 472 kts 259°
2026-05-05 06:38 51.61508 0.05756 35880 ft 473 kts 258°
2026-05-05 06:38 51.60936 0.00537 35984 ft 475 kts 259°
2026-05-05 06:39 51.59784 -0.09909 36001 ft 481 kts 258°
2026-05-05 06:39 51.58605 -0.20502 35995 ft 488 kts 258°
2026-05-05 06:40 51.57404 -0.31223 35992 ft 487 kts 258°
2026-05-05 06:40 51.56196 -0.41902 35988 ft 486 kts 258°
2026-05-05 06:41 51.54977 -0.52590 35988 ft 486 kts 258°
2026-05-05 06:41 51.53749 -0.63268 35992 ft 486 kts 258°
2026-05-05 06:42 51.52525 -0.73801 35988 ft 486 kts 258°
2026-05-05 06:42 51.51275 -0.84467 35985 ft 486 kts 258°
2026-05-05 06:43 51.50031 -0.95019 35992 ft 486 kts 258°
2026-05-05 06:43 51.48765 -1.05660 35993 ft 486 kts 258°
2026-05-05 06:44 51.47495 -1.16256 35998 ft 486 kts 258°
2026-05-05 06:44 51.46208 -1.26903 35995 ft 486 kts 258°
2026-05-05 06:45 51.44911 -1.37538 35999 ft 487 kts 258°
2026-05-05 06:45 51.43606 -1.48173 36002 ft 486 kts 257°
2026-05-05 06:46 51.42286 -1.58831 36008 ft 487 kts 257°
2026-05-05 06:46 51.40944 -1.69453 36006 ft 486 kts 256°
2026-05-05 06:47 51.38965 -1.79695 36004 ft 485 kts 250°
2026-05-05 06:47 51.36728 -1.89911 36005 ft 486 kts 249°
2026-05-05 06:48 51.34448 -2.00073 36007 ft 485 kts 249°
2026-05-05 06:48 51.32333 -2.10336 36005 ft 486 kts 252°
2026-05-05 06:49 51.30396 -2.20620 36009 ft 487 kts 252°
2026-05-05 06:49 51.28424 -2.30977 36012 ft 487 kts 252°
2026-05-05 06:50 51.26413 -2.41294 36016 ft 487 kts 251°
2026-05-05 06:50 51.24379 -2.51602 36018 ft 487 kts 251°
2026-05-05 06:51 51.24047 -2.53273 36017 ft 487 kts 251°
2026-05-05 06:52 51.16140 -2.92809 36017 ft 488 kts 251°
2026-05-05 06:53 51.14050 -3.03118 36018 ft 489 kts 251°
2026-05-05 06:53 51.11968 -3.13342 36017 ft 489 kts 251°
2026-05-05 06:54 51.09861 -3.23634 36018 ft 490 kts 251°
2026-05-05 06:54 51.07741 -3.33937 36018 ft 490 kts 251°
2026-05-05 06:55 51.05614 -3.44223 36018 ft 490 kts 251°
2026-05-05 06:55 51.03484 -3.54461 36017 ft 491 kts 251°
2026-05-05 06:56 51.01335 -3.64747 36016 ft 491 kts 251°
2026-05-05 06:56 50.99177 -3.75032 36018 ft 491 kts 251°
2026-05-05 06:57 50.97006 -3.85312 36018 ft 491 kts 251°
2026-05-05 06:57 50.94825 -3.95589 36017 ft 492 kts 251°
2026-05-05 06:58 50.92650 -4.05784 36017 ft 492 kts 251°
2026-05-05 06:58 50.90446 -4.16069 36018 ft 493 kts 251°
2026-05-05 06:59 50.88234 -4.26344 36017 ft 494 kts 251°
2026-05-05 06:59 50.86006 -4.36631 36017 ft 494 kts 251°
2026-05-05 07:00 50.83783 -4.46846 36018 ft 494 kts 250°
2026-05-05 07:00 50.81538 -4.57112 36017 ft 494 kts 250°
2026-05-05 07:01 50.79283 -4.67378 36017 ft 494 kts 250°
2026-05-05 07:01 50.77017 -4.77638 36017 ft 495 kts 250°
2026-05-05 07:02 50.74753 -4.87835 36017 ft 495 kts 250°
2026-05-05 07:02 50.72466 -4.98089 36017 ft 495 kts 250°
2026-05-05 07:03 50.70166 -5.08352 36017 ft 496 kts 250°
2026-05-05 07:03 50.67859 -5.18597 36017 ft 496 kts 250°
2026-05-05 07:04 50.65556 -5.28770 36018 ft 497 kts 250°
2026-05-05 07:04 50.63226 -5.39017 36017 ft 497 kts 250°
2026-05-05 07:05 50.60885 -5.49267 36017 ft 497 kts 250°
2026-05-05 07:05 50.58535 -5.59500 36010 ft 497 kts 250°
2026-05-05 07:06 50.56173 -5.69725 35998 ft 497 kts 250°
2026-05-05 07:06 50.53820 -5.79875 36002 ft 498 kts 250°
2026-05-05 07:07 50.51445 -5.90081 36009 ft 498 kts 250°
2026-05-05 07:07 50.49457 -5.98580 36009 ft 498 kts 250°
2026-05-05 07:08 50.46658 -6.10494 36005 ft 498 kts 250°
2026-05-05 07:08 50.44262 -6.20632 36011 ft 499 kts 249°
2026-05-05 07:09 50.41839 -6.30832 36011 ft 499 kts 249°
2026-05-05 07:09 50.39410 -6.41015 36026 ft 499 kts 249°
2026-05-05 07:10 50.36974 -6.51182 36026 ft 499 kts 249°
2026-05-05 07:10 50.34529 -6.61343 36025 ft 499 kts 249°
2026-05-05 07:11 50.32087 -6.71440 36027 ft 499 kts 249°
2026-05-05 07:11 50.29622 -6.81583 36027 ft 500 kts 249°
2026-05-05 07:12 50.27141 -6.91752 36026 ft 500 kts 249°
2026-05-05 07:12 50.24649 -7.01912 36026 ft 501 kts 249°
2026-05-05 07:13 50.22166 -7.12000 36027 ft 501 kts 249°
2026-05-05 07:13 50.19654 -7.22146 36026 ft 502 kts 249°
2026-05-05 07:14 50.17128 -7.32300 36028 ft 503 kts 250°
2026-05-05 07:14 50.14592 -7.42457 36026 ft 503 kts 249°
2026-05-05 07:15 50.12042 -7.52617 36048 ft 503 kts 249°
2026-05-05 07:15 50.09502 -7.62700 36028 ft 504 kts 249°
2026-05-05 07:16 50.06925 -7.72881 36027 ft 505 kts 249°
2026-05-05 07:16 50.04341 -7.83037 36027 ft 505 kts 249°
2026-05-05 07:17 50.01743 -7.93208 36027 ft 506 kts 249°
2026-05-05 07:17 49.99153 -8.03289 36026 ft 506 kts 249°
2026-05-05 07:18 49.96460 -8.13394 36026 ft 506 kts 248°
2026-05-05 07:18 49.93730 -8.23471 36056 ft 506 kts 248°
2026-05-05 07:19 49.91001 -8.33536 36033 ft 506 kts 248°
2026-05-05 07:19 49.88269 -8.43607 36036 ft 506 kts 248°
2026-05-05 07:20 49.85557 -8.53575 36066 ft 506 kts 248°
2026-05-05 07:20 49.82810 -8.63631 36082 ft 506 kts 248°
2026-05-05 07:21 49.80059 -8.73655 36083 ft 506 kts 248°
2026-05-05 07:21 49.77296 -8.83678 36082 ft 507 kts 248°
2026-05-05 07:22 49.74539 -8.93636 36082 ft 507 kts 248°
2026-05-05 07:22 49.71755 -9.03647 36081 ft 507 kts 248°
2026-05-05 07:23 49.68961 -9.13657 36081 ft 507 kts 248°
2026-05-05 07:23 49.66160 -9.23652 36082 ft 508 kts 248°
2026-05-05 07:24 49.63367 -9.33577 36082 ft 508 kts 248°
2026-05-05 07:24 49.60548 -9.43546 36082 ft 507 kts 248°
2026-05-05 07:25 49.57715 -9.53520 36082 ft 508 kts 248°
2026-05-05 07:25 49.54873 -9.63483 36063 ft 508 kts 248°
2026-05-05 07:26 49.52043 -9.73368 36068 ft 509 kts 248°
2026-05-05 07:26 49.49184 -9.83316 36070 ft 508 kts 248°
2026-05-05 07:27 49.46315 -9.93255 36071 ft 508 kts 248°
2026-05-05 07:27 49.43439 -10.03178 36076 ft 508 kts 248°
2026-05-05 07:28 49.40574 -10.13025 36074 ft 508 kts 248°
2026-05-05 07:28 49.37684 -10.22918 36071 ft 508 kts 248°
2026-05-05 07:29 49.34785 -10.32798 36074 ft 508 kts 248°
2026-05-05 07:29 49.31878 -10.42656 36076 ft 508 kts 248°
2026-05-05 07:30 49.28962 -10.52510 36076 ft 507 kts 248°
2026-05-05 07:30 49.24599 -10.67180 36073 ft 506 kts 248°
2026-05-05 07:31 49.21671 -10.76978 36076 ft 506 kts 248°
2026-05-05 07:31 49.18740 -10.86750 36108 ft 506 kts 247°
2026-05-05 07:32 49.15796 -10.96514 36120 ft 505 kts 247°
2026-05-05 07:32 49.12870 -11.06194 36117 ft 505 kts 247°
2026-05-05 07:33 49.09919 -11.15920 36119 ft 505 kts 247°
2026-05-05 07:33 49.06960 -11.25622 36111 ft 504 kts 247°
2026-05-05 07:34 49.03999 -11.35301 36111 ft 504 kts 247°
2026-05-05 07:34 49.01050 -11.44903 36113 ft 503 kts 247°
2026-05-05 07:35 48.98074 -11.54549 36113 ft 503 kts 247°
2026-05-05 07:35 48.95091 -11.64182 36107 ft 503 kts 247°
2026-05-05 07:36 48.92097 -11.73812 36106 ft 504 kts 247°
2026-05-05 07:36 48.89116 -11.83370 36107 ft 504 kts 247°
2026-05-05 07:37 48.86106 -11.92978 36113 ft 504 kts 247°
2026-05-05 07:37 48.83096 -12.02590 36105 ft 504 kts 248°
2026-05-05 07:38 48.80447 -12.12407 36108 ft 501 kts 252°
2026-05-05 07:38 48.77979 -12.22178 36109 ft 500 kts 252°
2026-05-05 07:39 48.75443 -12.32000 36107 ft 500 kts 251°
2026-05-05 07:39 48.72856 -12.41771 36109 ft 500 kts 251°
2026-05-05 07:40 48.70242 -12.51530 36106 ft 499 kts 251°
2026-05-05 07:40 48.67623 -12.61256 36110 ft 499 kts 251°
2026-05-05 07:41 48.65019 -12.70898 36113 ft 499 kts 250°
2026-05-05 07:41 48.62391 -12.80597 36108 ft 498 kts 250°
2026-05-05 07:42 48.59759 -12.90279 36112 ft 497 kts 250°
2026-05-05 07:42 48.57124 -12.99931 36107 ft 496 kts 250°
2026-05-05 07:43 48.54502 -13.09484 36110 ft 496 kts 250°
2026-05-05 07:43 48.51861 -13.19072 36110 ft 495 kts 250°
2026-05-05 07:44 48.49216 -13.28642 36113 ft 494 kts 250°
2026-05-05 07:44 48.46567 -13.38173 36113 ft 493 kts 250°
2026-05-05 07:45 48.43935 -13.47613 36107 ft 492 kts 250°
2026-05-05 07:45 48.41284 -13.57098 36112 ft 491 kts 250°
2026-05-05 07:46 48.38626 -13.66560 36109 ft 491 kts 250°
2026-05-05 07:46 48.35965 -13.75994 36110 ft 490 kts 250°
2026-05-05 07:47 48.33747 -13.83826 36107 ft 490 kts 250°
2026-05-05 07:47 48.30640 -13.94755 36113 ft 489 kts 250°
2026-05-05 07:48 48.28413 -14.02559 36109 ft 489 kts 250°
2026-05-05 07:48 48.25732 -14.11927 36108 ft 489 kts 249°
2026-05-05 07:49 48.23042 -14.21284 36108 ft 488 kts 249°
2026-05-05 07:49 48.19907 -14.32141 36108 ft 488 kts 249°
2026-05-05 07:50 48.17641 -14.39965 36108 ft 488 kts 249°
2026-05-05 07:50 48.14949 -14.49221 36109 ft 488 kts 249°
2026-05-05 07:51 48.12236 -14.58519 36107 ft 488 kts 249°
2026-05-05 07:51 48.09512 -14.67815 36109 ft 488 kts 249°
2026-05-05 07:52 48.06780 -14.77098 36125 ft 487 kts 249°
2026-05-05 07:52 48.04067 -14.86289 36123 ft 487 kts 249°
2026-05-05 07:53 48.01324 -14.95545 36127 ft 487 kts 249°
2026-05-05 07:53 47.99135 -15.05039 36126 ft 483 kts 257°
2026-05-05 07:54 47.97376 -15.14717 36137 ft 483 kts 258°
2026-05-05 07:54 47.95687 -15.24402 36123 ft 482 kts 258°
2026-05-05 07:55 47.93996 -15.34022 36132 ft 482 kts 257°
2026-05-05 07:55 47.92276 -15.43678 36132 ft 482 kts 257°
2026-05-05 07:56 47.90544 -15.53328 36129 ft 482 kts 257°
2026-05-05 07:56 47.88802 -15.62974 36125 ft 482 kts 257°
2026-05-05 07:57 47.87059 -15.72582 36137 ft 481 kts 257°
2026-05-05 07:57 47.85311 -15.82163 36126 ft 482 kts 257°
2026-05-05 07:58 47.83547 -15.91780 36129 ft 482 kts 257°
2026-05-05 07:58 47.81776 -16.01385 36131 ft 481 kts 257°
2026-05-05 07:59 47.79997 -16.10989 36128 ft 482 kts 257°
2026-05-05 07:59 47.78221 -16.20518 36131 ft 481 kts 257°
2026-05-05 08:00 47.76426 -16.30104 36145 ft 481 kts 257°
2026-05-05 08:00 47.74625 -16.39686 36146 ft 481 kts 256°
2026-05-05 08:01 47.72814 -16.49254 36145 ft 481 kts 256°
2026-05-05 08:01 47.70994 -16.58824 36145 ft 481 kts 256°
2026-05-05 08:02 47.69183 -16.68309 36129 ft 481 kts 256°
2026-05-05 08:02 47.67347 -16.77869 36131 ft 481 kts 256°
2026-05-05 08:03 47.65505 -16.87405 36146 ft 481 kts 256°
2026-05-05 08:03 47.63656 -16.96936 36145 ft 481 kts 256°
2026-05-05 08:04 47.61815 -17.06382 36129 ft 481 kts 256°
2026-05-05 08:04 47.59952 -17.15898 36138 ft 480 kts 256°
2026-05-05 08:05 47.58082 -17.25398 36143 ft 480 kts 256°
2026-05-05 08:05 47.56205 -17.34887 36144 ft 480 kts 256°
2026-05-05 08:06 47.54319 -17.44374 36134 ft 480 kts 256°
2026-05-05 08:06 47.52440 -17.53782 36130 ft 480 kts 256°
2026-05-05 08:07 47.50539 -17.63252 36148 ft 480 kts 255°
2026-05-05 08:07 47.48628 -17.72726 36145 ft 480 kts 255°
2026-05-05 08:08 47.46709 -17.82185 36145 ft 480 kts 255°
2026-05-05 08:08 47.44798 -17.91574 36146 ft 481 kts 255°
2026-05-05 08:09 47.42865 -18.01024 36148 ft 480 kts 255°
2026-05-05 08:09 47.40927 -18.10453 36146 ft 480 kts 255°
2026-05-05 08:10 47.38981 -18.19878 36145 ft 480 kts 255°
2026-05-05 08:10 47.37028 -18.29285 36147 ft 480 kts 255°
2026-05-05 08:11 47.35081 -18.38629 36146 ft 479 kts 255°
2026-05-05 08:11 47.33114 -18.48023 36148 ft 479 kts 255°
2026-05-05 08:12 47.31139 -18.57398 36148 ft 479 kts 255°
2026-05-05 08:12 47.29158 -18.66768 36147 ft 478 kts 255°
2026-05-05 08:13 47.27185 -18.76069 36154 ft 479 kts 255°
2026-05-05 08:13 47.25190 -18.85416 36156 ft 479 kts 255°
2026-05-05 08:14 47.23187 -18.94763 36157 ft 479 kts 255°
2026-05-05 08:14 47.21177 -19.04098 36156 ft 479 kts 255°
2026-05-05 08:15 47.19160 -19.13423 36156 ft 478 kts 255°
2026-05-05 08:15 47.17137 -19.22738 36156 ft 478 kts 255°
2026-05-05 08:16 47.15119 -19.31983 36155 ft 478 kts 255°
2026-05-05 08:16 47.13080 -19.41283 36156 ft 478 kts 255°
2026-05-05 08:17 47.11033 -19.50577 36157 ft 478 kts 255°
2026-05-05 08:17 47.08983 -19.59853 36156 ft 478 kts 255°
2026-05-05 08:18 47.06926 -19.69120 36156 ft 478 kts 255°
2026-05-05 08:18 47.04869 -19.78334 36164 ft 478 kts 254°
2026-05-05 08:19 47.02793 -19.87600 36183 ft 478 kts 254°
2026-05-05 08:19 47.00709 -19.96861 36181 ft 479 kts 254°
2026-05-05 08:20 46.98074 -20.05840 36189 ft 481 kts 248°
2026-05-05 08:20 46.95193 -20.14601 36195 ft 481 kts 247°
2026-05-05 08:21 46.92246 -20.23371 36192 ft 480 kts 247°
2026-05-05 08:21 46.89298 -20.32139 36199 ft 480 kts 247°
2026-05-05 08:22 46.86353 -20.40910 36202 ft 480 kts 247°
2026-05-05 08:22 46.83422 -20.49613 36202 ft 480 kts 247°
2026-05-05 08:23 46.80466 -20.58354 36202 ft 480 kts 247°
2026-05-05 08:23 46.77503 -20.67095 36202 ft 480 kts 246°
2026-05-05 08:24 46.74532 -20.75830 36202 ft 480 kts 246°
2026-05-05 08:24 46.71578 -20.84488 36202 ft 480 kts 246°
2026-05-05 08:25 46.68598 -20.93189 36211 ft 480 kts 246°
2026-05-05 08:25 46.65611 -21.01882 36211 ft 480 kts 246°
2026-05-05 08:26 46.62618 -21.10566 36211 ft 480 kts 246°
2026-05-05 08:26 46.59643 -21.19172 36211 ft 480 kts 246°
2026-05-05 08:27 46.56640 -21.27826 36211 ft 479 kts 246°
2026-05-05 08:27 46.53628 -21.36470 36211 ft 479 kts 246°
2026-05-05 08:28 46.50615 -21.45099 36220 ft 479 kts 246°
2026-05-05 08:28 46.47593 -21.53724 36220 ft 479 kts 246°
2026-05-05 08:29 46.44582 -21.62287 36220 ft 480 kts 246°
2026-05-05 08:30 46.40024 -21.75200 36220 ft 480 kts 246°
2026-05-05 08:30 46.36980 -21.83787 36220 ft 480 kts 246°
2026-05-05 08:31 46.33924 -21.92383 36229 ft 480 kts 246°
2026-05-05 08:31 46.30883 -22.00910 36230 ft 480 kts 246°
2026-05-05 08:32 46.27819 -22.09473 36230 ft 480 kts 246°
2026-05-05 08:32 46.24746 -22.18034 36229 ft 480 kts 246°
2026-05-05 08:33 46.21667 -22.26583 36230 ft 480 kts 246°
2026-05-05 08:33 46.18600 -22.35074 36236 ft 480 kts 246°
2026-05-05 08:34 46.15513 -22.43593 36239 ft 479 kts 246°
2026-05-05 08:34 46.12440 -22.52046 36239 ft 479 kts 246°
2026-05-05 08:35 46.09344 -22.60530 36264 ft 478 kts 246°
2026-05-05 08:35 46.06244 -22.69004 36275 ft 478 kts 245°
2026-05-05 08:36 46.03140 -22.77465 36275 ft 478 kts 245°
2026-05-05 08:36 46.00032 -22.85906 36275 ft 477 kts 245°
2026-05-05 08:37 45.96937 -22.94280 36276 ft 478 kts 245°
2026-05-05 08:37 45.93818 -23.02705 36285 ft 478 kts 245°
2026-05-05 08:38 45.90691 -23.11124 36284 ft 477 kts 245°
2026-05-05 08:38 45.87556 -23.19532 36285 ft 477 kts 245°
2026-05-05 08:39 45.84422 -23.27912 36285 ft 477 kts 245°
2026-05-05 08:39 45.81304 -23.36231 36284 ft 476 kts 245°
2026-05-05 08:40 45.78165 -23.44570 36284 ft 475 kts 245°
2026-05-05 08:40 45.75026 -23.52883 36284 ft 475 kts 245°
2026-05-05 08:41 45.71902 -23.61138 36294 ft 474 kts 245°
2026-05-05 08:41 45.68756 -23.69428 36316 ft 474 kts 245°
2026-05-05 08:42 45.65601 -23.77707 36301 ft 474 kts 245°
2026-05-05 08:42 45.62441 -23.85978 36300 ft 474 kts 245°
2026-05-05 08:43 45.59298 -23.94182 36303 ft 474 kts 245°
2026-05-05 08:43 45.56130 -24.02427 36302 ft 474 kts 245°
2026-05-05 08:44 45.52948 -24.10677 36301 ft 474 kts 245°
2026-05-05 08:44 45.49765 -24.18912 36309 ft 475 kts 245°
2026-05-05 08:45 45.46569 -24.27153 36301 ft 475 kts 245°
2026-05-05 08:45 45.43387 -24.35337 36318 ft 476 kts 245°
2026-05-05 08:46 45.40174 -24.43583 36310 ft 476 kts 245°
2026-05-05 08:46 45.36947 -24.51832 36302 ft 477 kts 246°
2026-05-05 08:47 45.33711 -24.60078 36311 ft 479 kts 246°
2026-05-05 08:47 45.30480 -24.68286 36317 ft 479 kts 246°
2026-05-05 08:48 45.27222 -24.76539 36310 ft 479 kts 246°
2026-05-05 08:48 45.23956 -24.84790 36310 ft 480 kts 246°
2026-05-05 08:49 45.20677 -24.93050 36310 ft 481 kts 246°
2026-05-05 08:49 45.17387 -25.01313 36315 ft 482 kts 247°
2026-05-05 08:50 45.14109 -25.09523 36320 ft 482 kts 247°
2026-05-05 08:50 45.10799 -25.17790 36317 ft 482 kts 247°
2026-05-05 08:51 45.07481 -25.26036 36331 ft 483 kts 247°
2026-05-05 08:51 45.04146 -25.34309 36348 ft 484 kts 248°
2026-05-05 08:52 45.00830 -25.42519 36349 ft 484 kts 248°
2026-05-05 08:52 44.97477 -25.50798 36347 ft 486 kts 248°
2026-05-05 08:53 44.94113 -25.59065 36350 ft 485 kts 248°
2026-05-05 08:53 44.90742 -25.67329 36356 ft 486 kts 248°
2026-05-05 08:54 44.87363 -25.75599 36356 ft 488 kts 248°
2026-05-05 08:54 44.83992 -25.83816 36357 ft 488 kts 248°
2026-05-05 08:55 44.80580 -25.92108 36359 ft 490 kts 248°
2026-05-05 08:55 44.77167 -26.00390 36358 ft 489 kts 248°
2026-05-05 08:56 44.73733 -26.08667 36358 ft 491 kts 248°
2026-05-05 08:56 44.70323 -26.16899 36356 ft 492 kts 248°
2026-05-05 08:57 44.66863 -26.25218 36351 ft 493 kts 249°
2026-05-05 08:57 44.63403 -26.33530 36349 ft 493 kts 248°
2026-05-05 08:58 44.59946 -26.41778 36351 ft 494 kts 248°
2026-05-05 08:58 44.56463 -26.50073 36349 ft 494 kts 248°
2026-05-05 08:59 44.52971 -26.58353 36350 ft 493 kts 248°
2026-05-05 08:59 44.49477 -26.66632 36345 ft 493 kts 248°
2026-05-05 09:00 44.46004 -26.74828 36347 ft 493 kts 248°
2026-05-05 09:00 44.42497 -26.83074 36351 ft 493 kts 248°
2026-05-05 09:01 44.38986 -26.91310 36346 ft 493 kts 248°
2026-05-05 09:01 44.35464 -26.99544 36356 ft 493 kts 248°
2026-05-05 09:02 44.31970 -27.07701 36359 ft 492 kts 248°
2026-05-05 09:02 44.28451 -27.15893 36371 ft 492 kts 248°
2026-05-05 09:03 44.25524 -27.22691 36374 ft 492 kts 247°
2026-05-05 09:03 44.21389 -27.32264 36378 ft 493 kts 247°
2026-05-05 09:04 44.17845 -27.40442 36376 ft 493 kts 247°
2026-05-05 09:04 44.14320 -27.48548 36376 ft 493 kts 247°
2026-05-05 09:05 44.10759 -27.56716 36383 ft 493 kts 247°
2026-05-05 09:05 44.07195 -27.64872 36389 ft 493 kts 246°
2026-05-05 09:06 44.03669 -27.72908 36383 ft 486 kts 245°
2026-05-05 09:06 44.00163 -27.80873 36384 ft 482 kts 245°
2026-05-05 09:07 43.96669 -27.88807 36383 ft 482 kts 245°
2026-05-05 09:07 43.93165 -27.96743 36387 ft 482 kts 245°
2026-05-05 09:08 43.89659 -28.04658 36388 ft 482 kts 245°
2026-05-05 09:08 43.86167 -28.12514 36392 ft 482 kts 245°
2026-05-05 09:09 43.82639 -28.20430 36391 ft 482 kts 245°
2026-05-05 09:09 43.79114 -28.28320 36396 ft 482 kts 245°
2026-05-05 09:10 43.75584 -28.36199 36395 ft 482 kts 245°
2026-05-05 09:10 43.72041 -28.44085 36414 ft 482 kts 245°
2026-05-05 09:11 43.68525 -28.51893 36414 ft 482 kts 245°
2026-05-05 09:11 43.64978 -28.59744 36407 ft 481 kts 245°
2026-05-05 09:12 43.61424 -28.67589 36396 ft 481 kts 245°
2026-05-05 09:12 43.57870 -28.75414 36395 ft 481 kts 245°
2026-05-05 09:13 43.54346 -28.83152 36401 ft 480 kts 245°
2026-05-05 09:13 43.50791 -28.90939 36403 ft 480 kts 245°
2026-05-05 09:14 43.47233 -28.98715 36409 ft 480 kts 245°
2026-05-05 09:14 43.43668 -29.06480 36409 ft 479 kts 245°
2026-05-05 09:15 43.40108 -29.14216 36393 ft 479 kts 245°
2026-05-05 09:15 43.36566 -29.21897 36390 ft 479 kts 245°
2026-05-05 09:16 43.32994 -29.29617 36400 ft 479 kts 245°
2026-05-05 09:16 43.29420 -29.37319 36406 ft 478 kts 245°
2026-05-05 09:17 43.25849 -29.45001 36411 ft 478 kts 245°
2026-05-05 09:17 43.22291 -29.52633 36395 ft 478 kts 245°
2026-05-05 09:18 43.18708 -29.60296 36383 ft 478 kts 245°
2026-05-05 09:18 43.15120 -29.67951 36387 ft 478 kts 245°
2026-05-05 09:19 43.11521 -29.75610 36386 ft 477 kts 245°
2026-05-05 09:19 43.07949 -29.83197 36384 ft 477 kts 245°
2026-05-05 09:20 43.04345 -29.90829 36385 ft 478 kts 245°
2026-05-05 09:20 43.00728 -29.98464 36389 ft 478 kts 245°
2026-05-05 09:21 42.97039 -30.06038 36394 ft 480 kts 244°
2026-05-05 09:21 42.93226 -30.13438 36391 ft 479 kts 243°
2026-05-05 09:22 42.89389 -30.20854 36393 ft 479 kts 243°
2026-05-05 09:22 42.85562 -30.28297 36395 ft 479 kts 243°
2026-05-05 09:23 42.81744 -30.35736 36393 ft 479 kts 244°
2026-05-05 09:23 42.77920 -30.43174 36401 ft 480 kts 244°
2026-05-05 09:24 42.74087 -30.50614 36394 ft 481 kts 244°
2026-05-05 09:24 42.70270 -30.57997 36395 ft 480 kts 243°
2026-05-05 09:25 42.66425 -30.65418 36391 ft 480 kts 243°
2026-05-05 09:25 42.62577 -30.72820 36685 ft 478 kts 244°
2026-05-05 09:25 42.60666 -30.76485 36936 ft 475 kts 244°
2026-05-05 09:26 42.58763 -30.80139 37209 ft 472 kts 244°
2026-05-05 09:26 42.56875 -30.83762 37485 ft 469 kts 245°
2026-05-05 09:26 42.55020 -30.87320 37738 ft 467 kts 245°
2026-05-05 09:26 42.53150 -30.90907 37980 ft 465 kts 245°
2026-05-05 09:27 42.51277 -30.94473 38197 ft 464 kts 246°
2026-05-05 09:27 42.49403 -30.98032 38362 ft 463 kts 246°
2026-05-05 09:27 42.47534 -31.01592 38393 ft 465 kts 246°
2026-05-05 09:28 42.43765 -31.08763 38397 ft 467 kts 246°
2026-05-05 09:28 42.40027 -31.15854 38396 ft 465 kts 246°
2026-05-05 09:29 42.36266 -31.22974 38394 ft 466 kts 246°
2026-05-05 09:29 42.32485 -31.30118 38393 ft 467 kts 246°
2026-05-05 09:30 42.28711 -31.37228 38395 ft 466 kts 246°
2026-05-05 09:30 42.24932 -31.44336 38394 ft 466 kts 246°
2026-05-05 09:31 42.21172 -31.51376 38398 ft 466 kts 246°
2026-05-05 09:31 42.17383 -31.58465 38400 ft 465 kts 246°
2026-05-05 09:32 42.13608 -31.65544 38399 ft 465 kts 246°
2026-05-05 09:32 42.09820 -31.72606 38414 ft 465 kts 247°
2026-05-05 09:33 42.06047 -31.79605 38401 ft 464 kts 246°
2026-05-05 09:33 42.02248 -31.86631 38399 ft 465 kts 246°
2026-05-05 09:34 41.98450 -31.93642 38406 ft 464 kts 246°
2026-05-05 09:34 41.94665 -32.00619 38415 ft 465 kts 246°
2026-05-05 09:35 41.90857 -32.07629 38404 ft 465 kts 246°
2026-05-05 09:35 41.85131 -32.18132 38397 ft 465 kts 246°
2026-05-05 09:36 41.81307 -32.25138 38416 ft 465 kts 246°
2026-05-05 09:36 41.77504 -32.32107 38410 ft 467 kts 245°
2026-05-05 09:37 41.73647 -32.39125 38409 ft 469 kts 245°
2026-05-05 09:37 41.69778 -32.46130 38398 ft 466 kts 246°
2026-05-05 09:38 41.65929 -32.53105 38398 ft 467 kts 245°
2026-05-05 09:38 41.62062 -32.60097 38397 ft 469 kts 245°
2026-05-05 09:39 41.58219 -32.67036 38400 ft 467 kts 245°
2026-05-05 09:39 41.54347 -32.74012 38397 ft 467 kts 245°
2026-05-05 09:40 41.50472 -32.80981 38400 ft 468 kts 245°
2026-05-05 09:40 41.46590 -32.87939 38413 ft 467 kts 245°
2026-05-05 09:41 41.42736 -32.94831 38408 ft 467 kts 244°
2026-05-05 09:41 41.38851 -33.01766 38415 ft 467 kts 244°
2026-05-05 09:42 41.34965 -33.08677 38399 ft 465 kts 244°
2026-05-05 09:42 41.31085 -33.15568 38411 ft 465 kts 244°
2026-05-05 09:43 41.27200 -33.22456 38404 ft 466 kts 244°
2026-05-05 09:43 41.23337 -33.29290 38401 ft 466 kts 244°
2026-05-05 09:44 41.19438 -33.36167 38400 ft 465 kts 244°
2026-05-05 09:44 41.15545 -33.43019 38411 ft 465 kts 244°
2026-05-05 09:45 41.11651 -33.49861 38400 ft 465 kts 244°
2026-05-05 09:45 41.07779 -33.56650 38402 ft 465 kts 243°
2026-05-05 09:46 41.03873 -33.63478 38400 ft 465 kts 243°
2026-05-05 09:46 40.99958 -33.70312 38419 ft 467 kts 243°
2026-05-05 09:47 40.96030 -33.77154 38398 ft 467 kts 243°
2026-05-05 09:47 40.92093 -33.83994 38400 ft 467 kts 243°
2026-05-05 09:48 40.88176 -33.90783 38399 ft 468 kts 243°
2026-05-05 09:48 40.84220 -33.97625 38413 ft 469 kts 243°
2026-05-05 09:49 40.80255 -34.04465 38414 ft 469 kts 242°
2026-05-05 09:49 40.76293 -34.11284 38399 ft 468 kts 242°
2026-05-05 09:50 40.72348 -34.18063 38401 ft 469 kts 242°
2026-05-05 09:50 40.68365 -34.24890 38403 ft 470 kts 242°
2026-05-05 09:51 40.64381 -34.31710 38401 ft 471 kts 242°
2026-05-05 09:51 40.60377 -34.38545 38401 ft 471 kts 242°
2026-05-05 09:52 40.56396 -34.45324 38398 ft 471 kts 242°
2026-05-05 09:52 40.52381 -34.52142 38393 ft 472 kts 242°
2026-05-05 09:53 40.48365 -34.58953 38394 ft 472 kts 242°
2026-05-05 09:53 40.44342 -34.65760 38394 ft 472 kts 242°
2026-05-05 09:54 40.40337 -34.72522 38395 ft 472 kts 242°
2026-05-05 09:54 40.36306 -34.79312 38393 ft 472 kts 242°
2026-05-05 09:55 40.32268 -34.86098 38394 ft 472 kts 242°
2026-05-05 09:55 40.28224 -34.92881 38393 ft 472 kts 241°
2026-05-05 09:56 40.24175 -34.99659 38395 ft 472 kts 241°
2026-05-05 09:56 40.20147 -35.06385 38393 ft 474 kts 241°
2026-05-05 09:57 40.16077 -35.13169 38394 ft 474 kts 241°
2026-05-05 09:57 40.12004 -35.19941 38393 ft 474 kts 241°
2026-05-05 09:58 40.07918 -35.26719 38387 ft 474 kts 240°
2026-05-05 09:58 40.03862 -35.33433 38385 ft 475 kts 240°
2026-05-05 09:59 39.99763 -35.40205 38385 ft 476 kts 240°
2026-05-05 09:59 39.95645 -35.46993 38387 ft 478 kts 240°
2026-05-05 10:00 39.91502 -35.53815 38385 ft 481 kts 240°
2026-05-05 10:00 39.87369 -35.60595 38385 ft 481 kts 240°
2026-05-05 10:01 39.83204 -35.67408 38385 ft 480 kts 240°
2026-05-05 10:01 39.79043 -35.74204 38386 ft 480 kts 240°
2026-05-05 10:02 39.74882 -35.80992 38377 ft 480 kts 240°
2026-05-05 10:02 39.70716 -35.87775 38376 ft 480 kts 240°
2026-05-05 10:03 39.66570 -35.94505 38376 ft 480 kts 240°
2026-05-05 10:03 39.62391 -36.01277 38376 ft 481 kts 240°
2026-05-05 10:04 39.58205 -36.08045 38376 ft 481 kts 240°
2026-05-05 10:04 39.54014 -36.14811 38380 ft 482 kts 239°
2026-05-05 10:05 39.49837 -36.21528 38385 ft 482 kts 239°
2026-05-05 10:05 39.45628 -36.28285 38384 ft 482 kts 239°
2026-05-05 10:06 39.41414 -36.35036 38385 ft 482 kts 239°
2026-05-05 10:06 39.37195 -36.41791 38384 ft 483 kts 239°
2026-05-05 10:07 39.32991 -36.48502 38385 ft 484 kts 239°
2026-05-05 10:07 39.28754 -36.55251 38384 ft 484 kts 239°
2026-05-05 10:08 39.24511 -36.61999 38384 ft 485 kts 239°
2026-05-05 10:08 39.20260 -36.68738 38376 ft 485 kts 238°
2026-05-05 10:09 39.16026 -36.75440 38376 ft 486 kts 238°
2026-05-05 10:09 39.11749 -36.82197 38376 ft 486 kts 238°
2026-05-05 10:10 39.07469 -36.88938 38375 ft 487 kts 238°
2026-05-05 10:10 39.03183 -36.95678 38376 ft 487 kts 238°
2026-05-05 10:11 38.98922 -37.02366 38375 ft 487 kts 238°
2026-05-05 10:11 38.94622 -37.09098 38376 ft 488 kts 238°
2026-05-05 10:12 38.90313 -37.15828 38376 ft 488 kts 238°
2026-05-05 10:12 38.85999 -37.22558 38376 ft 489 kts 238°
2026-05-05 10:13 38.81668 -37.29294 38370 ft 489 kts 238°
2026-05-05 10:13 38.77367 -37.35973 38357 ft 489 kts 238°
2026-05-05 10:14 38.73033 -37.42685 38358 ft 489 kts 237°
2026-05-05 10:14 38.68695 -37.49394 38358 ft 490 kts 237°
2026-05-05 10:15 38.64344 -37.56109 38358 ft 491 kts 237°
2026-05-05 10:15 38.59982 -37.62828 38357 ft 492 kts 237°
2026-05-05 10:16 38.55638 -37.69503 38358 ft 492 kts 237°
2026-05-05 10:16 38.51251 -37.76228 38357 ft 493 kts 237°
2026-05-05 10:17 38.46859 -37.82955 38352 ft 494 kts 237°
2026-05-05 10:17 38.42448 -37.89689 38349 ft 495 kts 237°
2026-05-05 10:18 38.38028 -37.96423 38350 ft 496 kts 237°
2026-05-05 10:18 38.33635 -38.03106 38340 ft 496 kts 237°
2026-05-05 10:19 38.29204 -38.09837 38340 ft 495 kts 236°
2026-05-05 10:19 38.24768 -38.16543 38340 ft 496 kts 236°
2026-05-05 10:20 38.21073 -38.22118 38338 ft 496 kts 236°
2026-05-05 10:20 38.15896 -38.29929 38340 ft 496 kts 236°
2026-05-05 10:21 38.12179 -38.35527 38339 ft 495 kts 236°
2026-05-05 10:21 38.07763 -38.42171 38340 ft 496 kts 236°
2026-05-05 10:22 38.03311 -38.48839 38330 ft 495 kts 236°
2026-05-05 10:22 37.98147 -38.56564 38329 ft 494 kts 236°
2026-05-05 10:23 37.94418 -38.62131 38330 ft 495 kts 236°
2026-05-05 10:23 37.89992 -38.68734 38329 ft 496 kts 236°
2026-05-05 10:24 37.85520 -38.75369 38330 ft 495 kts 236°
2026-05-05 10:24 37.81064 -38.81982 38330 ft 494 kts 236°
2026-05-05 10:25 37.76603 -38.88588 38324 ft 493 kts 236°
2026-05-05 10:25 37.72179 -38.95124 38304 ft 493 kts 236°
2026-05-05 10:26 37.67725 -39.01695 38294 ft 492 kts 236°
2026-05-05 10:26 37.63276 -39.08246 38294 ft 491 kts 236°
2026-05-05 10:27 37.58827 -39.14778 38289 ft 491 kts 236°
2026-05-05 10:27 37.54409 -39.21258 38295 ft 491 kts 236°
2026-05-05 10:28 37.49961 -39.27769 38294 ft 490 kts 235°
2026-05-05 10:28 37.45507 -39.34272 38283 ft 490 kts 235°
2026-05-05 10:29 37.41058 -39.40755 38281 ft 490 kts 235°
2026-05-05 10:29 37.36608 -39.47230 38281 ft 489 kts 235°
2026-05-05 10:30 37.32184 -39.53652 38285 ft 489 kts 235°
2026-05-05 10:30 37.27733 -39.60097 38288 ft 489 kts 235°
2026-05-05 10:31 37.23267 -39.66555 38279 ft 490 kts 235°
2026-05-05 10:31 37.18799 -39.73001 38274 ft 490 kts 235°
2026-05-05 10:32 37.14358 -39.79400 38273 ft 490 kts 235°
2026-05-05 10:32 37.09877 -39.85841 38273 ft 490 kts 235°
2026-05-05 10:33 37.05399 -39.92268 38274 ft 491 kts 235°
2026-05-05 10:33 37.00923 -39.98728 38267 ft 489 kts 237°
2026-05-05 10:34 36.97039 -40.05649 38265 ft 484 kts 242°
2026-05-05 10:34 36.93394 -40.12613 38265 ft 481 kts 243°
2026-05-05 10:35 36.89763 -40.19630 38265 ft 481 kts 243°
2026-05-05 10:35 36.86113 -40.26651 38265 ft 482 kts 243°
2026-05-05 10:36 36.82447 -40.33664 38268 ft 482 kts 242°
2026-05-05 10:36 36.78796 -40.40622 38256 ft 483 kts 242°
2026-05-05 10:37 36.75117 -40.47623 38257 ft 483 kts 242°
2026-05-05 10:37 36.71426 -40.54631 38257 ft 483 kts 242°
2026-05-05 10:38 36.67737 -40.61616 38258 ft 483 kts 242°
2026-05-05 10:38 36.64074 -40.68539 38258 ft 483 kts 242°
2026-05-05 10:39 36.60376 -40.75517 38248 ft 482 kts 242°
2026-05-05 10:39 36.56683 -40.82471 38247 ft 482 kts 242°
2026-05-05 10:40 36.52984 -40.89422 38248 ft 481 kts 242°
2026-05-05 10:40 36.49309 -40.96314 38247 ft 481 kts 242°
2026-05-05 10:41 36.45610 -41.03239 38247 ft 481 kts 242°
2026-05-05 10:41 36.41914 -41.10139 38240 ft 480 kts 242°
2026-05-05 10:42 36.36394 -41.20425 38245 ft 478 kts 242°
2026-05-05 10:43 36.32701 -41.27285 38241 ft 478 kts 242°
2026-05-05 10:43 36.29001 -41.34145 38226 ft 478 kts 242°
2026-05-05 10:44 36.25300 -41.40989 38227 ft 478 kts 242°
2026-05-05 10:44 36.21605 -41.47817 38245 ft 477 kts 242°
2026-05-05 10:45 36.17933 -41.54588 38226 ft 477 kts 241°
2026-05-05 10:45 36.14234 -41.61396 38224 ft 477 kts 241°
2026-05-05 10:46 36.10530 -41.68198 38231 ft 477 kts 241°
2026-05-05 10:46 36.06818 -41.74998 38236 ft 477 kts 241°
2026-05-05 10:47 36.03108 -41.81782 38215 ft 476 kts 241°
2026-05-05 10:47 35.99421 -41.88512 38216 ft 476 kts 241°
2026-05-05 10:48 35.95704 -41.95283 38227 ft 476 kts 241°
2026-05-05 10:48 35.91986 -42.02046 38216 ft 476 kts 241°
2026-05-05 10:49 35.88259 -42.08807 38216 ft 476 kts 241°
2026-05-05 10:49 35.84554 -42.15516 38219 ft 476 kts 241°
2026-05-05 10:50 35.80824 -42.22260 38212 ft 476 kts 241°
2026-05-05 10:50 35.77085 -42.29004 38209 ft 477 kts 241°
2026-05-05 10:51 35.73346 -42.35736 38208 ft 477 kts 241°
2026-05-05 10:51 35.69622 -42.42427 38212 ft 476 kts 240°
2026-05-05 10:52 35.65875 -42.49146 38209 ft 476 kts 240°
2026-05-05 10:52 35.62128 -42.55853 38198 ft 476 kts 240°
2026-05-05 10:53 35.58378 -42.62554 38200 ft 475 kts 240°
2026-05-05 10:53 35.54632 -42.69233 38202 ft 475 kts 240°
2026-05-05 10:54 35.50910 -42.75856 38204 ft 475 kts 240°
2026-05-05 10:54 35.47160 -42.82520 38202 ft 474 kts 240°
2026-05-05 10:55 35.43407 -42.89174 38201 ft 474 kts 240°
2026-05-05 10:55 35.39655 -42.95812 38202 ft 473 kts 240°
2026-05-05 10:56 35.35925 -43.02396 38194 ft 473 kts 240°
2026-05-05 10:56 35.32177 -43.09008 38193 ft 473 kts 240°
2026-05-05 10:57 35.28423 -43.15616 38192 ft 472 kts 239°
2026-05-05 10:57 35.24667 -43.22213 38192 ft 472 kts 239°
2026-05-05 10:58 35.20939 -43.28749 38193 ft 472 kts 239°
2026-05-05 10:58 35.17182 -43.35326 38192 ft 471 kts 239°
2026-05-05 10:59 35.13425 -43.41887 38188 ft 471 kts 239°
2026-05-05 10:59 35.09671 -43.48431 38183 ft 471 kts 239°
2026-05-05 11:00 35.05909 -43.54976 38182 ft 470 kts 239°
2026-05-05 11:00 35.02175 -43.61460 38185 ft 470 kts 239°
2026-05-05 11:01 34.98415 -43.67978 38184 ft 470 kts 239°
2026-05-05 11:01 34.94652 -43.74490 38183 ft 470 kts 239°
2026-05-05 11:02 34.90887 -43.80992 38184 ft 469 kts 239°
2026-05-05 11:02 34.87147 -43.87441 38182 ft 469 kts 239°
2026-05-05 11:03 34.83374 -43.93935 38177 ft 469 kts 239°
2026-05-05 11:03 34.79601 -44.00414 38177 ft 469 kts 239°
2026-05-05 11:04 34.75828 -44.06882 38175 ft 468 kts 239°
2026-05-05 11:04 34.72096 -44.13270 38174 ft 465 kts 239°
2026-05-05 11:05 34.68349 -44.19675 38172 ft 465 kts 239°
2026-05-05 11:05 34.64603 -44.26067 38173 ft 464 kts 239°
2026-05-05 11:06 34.60849 -44.32458 38172 ft 464 kts 239°
2026-05-05 11:06 34.57120 -44.38793 38173 ft 464 kts 239°
2026-05-05 11:07 34.53361 -44.45167 38173 ft 464 kts 239°
2026-05-05 11:07 34.49601 -44.51532 38173 ft 464 kts 239°
2026-05-05 11:08 34.45838 -44.57895 38172 ft 464 kts 239°
2026-05-05 11:08 34.42072 -44.64249 38167 ft 464 kts 238°
2026-05-05 11:09 34.38331 -44.70552 38165 ft 464 kts 238°
2026-05-05 11:09 34.34567 -44.76880 38159 ft 463 kts 238°
2026-05-05 11:10 34.30799 -44.83205 38163 ft 463 kts 238°
2026-05-05 11:10 34.27058 -44.89473 38164 ft 462 kts 238°
2026-05-05 11:11 34.23300 -44.95760 38165 ft 462 kts 238°
2026-05-05 11:11 34.19534 -45.02044 38165 ft 461 kts 238°
2026-05-05 11:12 34.15781 -45.08299 38159 ft 460 kts 238°
2026-05-05 11:12 34.12024 -45.14550 38168 ft 459 kts 238°
2026-05-05 11:13 34.08302 -45.20729 38161 ft 458 kts 238°
2026-05-05 11:13 34.04558 -45.26938 38158 ft 457 kts 238°
2026-05-05 11:14 34.00817 -45.33132 38157 ft 457 kts 238°
2026-05-05 11:14 33.97100 -45.39275 38159 ft 457 kts 238°
2026-05-05 11:15 33.93350 -45.45463 38167 ft 457 kts 238°
2026-05-05 11:15 33.89597 -45.51641 38163 ft 457 kts 238°
2026-05-05 11:16 33.85845 -45.57809 38166 ft 456 kts 237°
2026-05-05 11:16 33.82101 -45.63958 38159 ft 455 kts 237°
2026-05-05 11:17 33.78378 -45.70058 38158 ft 455 kts 237°
2026-05-05 11:17 33.74632 -45.76185 38148 ft 455 kts 237°
2026-05-05 11:18 33.70880 -45.82309 38152 ft 455 kts 237°
2026-05-05 11:18 33.67129 -45.88427 38144 ft 455 kts 237°
2026-05-05 11:19 33.63394 -45.94508 38143 ft 455 kts 237°
2026-05-05 11:19 33.59637 -46.00613 38143 ft 455 kts 237°
2026-05-05 11:20 33.55881 -46.06705 38145 ft 454 kts 237°
2026-05-05 11:20 33.52126 -46.12782 38144 ft 453 kts 237°
2026-05-05 11:21 33.48393 -46.18819 38148 ft 454 kts 237°
2026-05-05 11:21 33.44632 -46.24891 38153 ft 454 kts 237°
2026-05-05 11:22 33.40866 -46.30962 38142 ft 454 kts 237°
2026-05-05 11:22 33.37095 -46.37026 38148 ft 454 kts 237°
2026-05-05 11:23 33.33347 -46.43044 38144 ft 454 kts 237°
2026-05-05 11:23 33.29571 -46.49098 38132 ft 454 kts 237°
2026-05-05 11:24 33.25795 -46.55144 38151 ft 454 kts 237°
2026-05-05 11:24 33.22010 -46.61195 38134 ft 455 kts 237°
2026-05-05 11:25 33.18221 -46.67243 38133 ft 455 kts 237°
2026-05-05 11:25 33.14448 -46.73251 38133 ft 455 kts 237°
2026-05-05 11:26 33.10647 -46.79291 38137 ft 455 kts 237°
2026-05-05 11:26 33.06849 -46.85322 38133 ft 455 kts 237°
2026-05-05 11:27 33.03044 -46.91355 38131 ft 455 kts 237°
2026-05-05 11:27 32.99266 -46.97334 38133 ft 455 kts 237°
2026-05-05 11:28 32.95462 -47.03348 38148 ft 454 kts 237°
2026-05-05 11:28 32.91654 -47.09358 38131 ft 454 kts 237°
2026-05-05 11:29 32.87844 -47.15357 38132 ft 454 kts 237°
2026-05-05 11:29 32.84063 -47.21303 38129 ft 454 kts 237°
2026-05-05 11:30 32.80251 -47.27288 38128 ft 454 kts 237°
2026-05-05 11:30 32.76435 -47.33267 38128 ft 454 kts 237°
2026-05-05 11:31 32.72614 -47.39243 38128 ft 454 kts 237°
2026-05-05 11:31 32.68816 -47.45181 38128 ft 455 kts 237°
2026-05-05 11:32 32.64984 -47.51159 38128 ft 455 kts 237°
2026-05-05 11:32 32.61150 -47.57131 38128 ft 455 kts 237°
2026-05-05 11:33 32.57312 -47.63099 38128 ft 455 kts 237°
2026-05-05 11:33 32.53466 -47.69065 38128 ft 455 kts 236°
2026-05-05 11:34 32.49653 -47.74978 38128 ft 455 kts 236°
2026-05-05 11:34 32.45813 -47.80926 38128 ft 455 kts 236°
2026-05-05 11:35 32.41965 -47.86871 38129 ft 455 kts 236°
2026-05-05 11:35 32.38116 -47.92811 38128 ft 455 kts 236°
2026-05-05 11:36 32.34290 -47.98705 38128 ft 455 kts 236°
2026-05-05 11:36 32.30428 -48.04643 38129 ft 455 kts 236°
2026-05-05 11:37 32.26565 -48.10573 38128 ft 455 kts 236°
2026-05-05 11:37 32.22704 -48.16492 38119 ft 455 kts 236°
2026-05-05 11:38 32.18863 -48.22373 38119 ft 455 kts 236°
2026-05-05 11:38 32.14994 -48.28287 38119 ft 456 kts 236°
2026-05-05 11:39 32.11115 -48.34206 38118 ft 455 kts 236°
2026-05-05 11:39 32.07243 -48.40104 38119 ft 455 kts 236°
2026-05-05 11:40 32.03395 -48.45957 38120 ft 454 kts 236°
2026-05-05 11:40 31.99528 -48.51829 38119 ft 454 kts 236°
2026-05-05 11:41 31.95657 -48.57702 38179 ft 455 kts 236°
2026-05-05 11:41 31.91771 -48.63587 38209 ft 455 kts 236°
2026-05-05 11:42 31.87885 -48.69463 38207 ft 454 kts 236°
2026-05-05 11:42 31.84029 -48.75287 38216 ft 455 kts 236°
2026-05-05 11:43 31.80140 -48.81149 38206 ft 455 kts 236°
2026-05-05 11:43 31.76245 -48.87009 38200 ft 454 kts 236°
2026-05-05 11:44 31.72353 -48.92856 38201 ft 454 kts 236°
2026-05-05 11:44 31.68457 -48.98702 38204 ft 454 kts 236°
2026-05-05 11:45 31.64588 -49.04497 38211 ft 454 kts 236°
2026-05-05 11:45 31.60695 -49.10321 38214 ft 454 kts 235°
2026-05-05 11:46 31.56798 -49.16136 38207 ft 453 kts 235°
2026-05-05 11:46 31.52902 -49.21949 38215 ft 453 kts 235°
2026-05-05 11:47 31.49033 -49.27712 38214 ft 453 kts 235°
2026-05-05 11:47 31.45135 -49.33509 38209 ft 453 kts 235°
2026-05-05 11:48 31.39287 -49.42186 38204 ft 452 kts 235°
2026-05-05 11:48 31.35385 -49.47965 38201 ft 452 kts 235°
2026-05-05 11:49 31.31483 -49.53737 38199 ft 453 kts 235°
2026-05-05 11:49 31.27600 -49.59472 38202 ft 453 kts 235°
2026-05-05 11:50 31.23691 -49.65235 38203 ft 453 kts 235°
2026-05-05 11:50 31.19778 -49.70998 38200 ft 453 kts 235°
2026-05-05 11:51 31.15863 -49.76756 38201 ft 453 kts 235°
2026-05-05 11:51 31.11972 -49.82470 38203 ft 453 kts 235°
2026-05-05 11:52 31.08054 -49.88213 38201 ft 453 kts 235°
2026-05-05 11:52 31.04128 -49.93961 38202 ft 453 kts 234°
2026-05-05 11:53 31.00254 -49.99740 38198 ft 451 kts 239°
2026-05-05 11:53 30.96852 -50.05863 38203 ft 449 kts 241°
2026-05-05 11:54 30.93595 -50.11980 38204 ft 447 kts 241°
2026-05-05 11:54 30.90335 -50.18140 38194 ft 446 kts 241°
2026-05-05 11:55 30.87066 -50.24288 38193 ft 447 kts 241°
2026-05-05 11:55 30.83788 -50.30425 38193 ft 447 kts 241°
2026-05-05 11:56 30.80520 -50.36530 38192 ft 447 kts 241°
2026-05-05 11:56 30.77232 -50.42661 38193 ft 447 kts 241°
2026-05-05 11:57 30.73942 -50.48789 38193 ft 447 kts 241°
2026-05-05 11:57 30.70641 -50.54927 38192 ft 447 kts 241°
2026-05-05 11:58 30.67365 -50.61010 38193 ft 447 kts 241°
2026-05-05 11:58 30.64065 -50.67128 38193 ft 447 kts 241°
2026-05-05 11:59 30.60760 -50.73245 38192 ft 447 kts 241°
2026-05-05 11:59 30.57453 -50.79356 38192 ft 447 kts 241°
2026-05-05 12:00 30.54149 -50.85451 38192 ft 446 kts 241°
2026-05-05 12:00 30.50870 -50.91491 38193 ft 446 kts 240°
2026-05-05 12:01 30.47564 -50.97573 38192 ft 445 kts 240°
2026-05-05 12:01 30.44259 -51.03639 38193 ft 445 kts 240°
2026-05-05 12:02 30.40960 -51.09691 38190 ft 444 kts 240°
2026-05-05 12:02 30.37684 -51.15693 38184 ft 444 kts 240°
2026-05-05 12:03 30.34382 -51.21733 38183 ft 443 kts 240°
2026-05-05 12:03 30.31081 -51.27757 38183 ft 443 kts 240°
2026-05-05 12:04 30.27778 -51.33779 38183 ft 443 kts 240°
2026-05-05 12:04 30.24495 -51.39756 38183 ft 443 kts 240°
2026-05-05 12:05 30.21190 -51.45760 38184 ft 442 kts 240°
2026-05-05 12:05 30.17892 -51.51743 38184 ft 440 kts 240°
2026-05-05 12:06 30.14606 -51.57700 38184 ft 440 kts 240°
2026-05-05 12:06 30.11338 -51.63614 38184 ft 440 kts 240°
2026-05-05 12:07 30.08047 -51.69563 38184 ft 440 kts 240°
2026-05-05 12:07 30.04752 -51.75508 38182 ft 439 kts 240°
2026-05-05 12:08 30.01453 -51.81442 38183 ft 439 kts 239°
2026-05-05 12:08 29.98151 -51.87380 38184 ft 439 kts 239°
2026-05-05 12:09 29.94873 -51.93274 38184 ft 439 kts 239°
2026-05-05 12:09 29.91569 -51.99201 38183 ft 439 kts 239°
2026-05-05 12:10 29.88259 -52.05128 38183 ft 440 kts 239°
2026-05-05 12:10 29.84950 -52.11049 38184 ft 439 kts 239°
2026-05-05 12:11 29.81659 -52.16922 38182 ft 440 kts 239°
2026-05-05 12:11 29.78345 -52.22828 38183 ft 440 kts 239°
2026-05-05 12:12 29.75021 -52.28745 38172 ft 440 kts 239°
2026-05-05 12:12 29.71702 -52.34646 38173 ft 440 kts 239°
2026-05-05 12:13 29.68397 -52.40515 38173 ft 440 kts 239°
2026-05-05 12:13 29.65063 -52.46423 38172 ft 441 kts 239°
2026-05-05 12:14 29.61726 -52.52332 38173 ft 441 kts 239°
2026-05-05 12:14 29.58388 -52.58233 38172 ft 440 kts 239°
2026-05-05 12:15 29.55069 -52.64095 38176 ft 441 kts 239°
2026-05-05 12:15 29.51721 -52.69993 38173 ft 441 kts 239°
2026-05-05 12:16 29.48372 -52.75885 38157 ft 441 kts 239°
2026-05-05 12:16 29.45019 -52.81775 38089 ft 441 kts 239°
2026-05-05 12:17 29.41687 -52.87623 38086 ft 441 kts 239°
2026-05-05 12:17 29.38327 -52.93513 38091 ft 441 kts 239°
2026-05-05 12:18 29.34971 -52.99387 38094 ft 441 kts 239°
2026-05-05 12:18 29.31606 -53.05264 38092 ft 441 kts 239°
2026-05-05 12:19 29.28237 -53.11143 38095 ft 441 kts 239°
2026-05-05 12:19 29.24893 -53.16969 38090 ft 441 kts 239°
2026-05-05 12:20 29.21523 -53.22831 38095 ft 441 kts 239°
2026-05-05 12:20 29.18148 -53.28695 38093 ft 441 kts 239°
2026-05-05 12:21 29.14779 -53.34543 38090 ft 441 kts 239°
2026-05-05 12:21 29.11425 -53.40358 38095 ft 441 kts 239°
2026-05-05 12:22 29.08047 -53.46203 38093 ft 441 kts 239°
2026-05-05 12:22 29.04656 -53.52062 38093 ft 442 kts 239°
2026-05-05 12:23 29.01262 -53.57914 38090 ft 442 kts 239°
2026-05-05 12:23 28.97892 -53.63720 38093 ft 442 kts 239°
2026-05-05 12:24 28.94490 -53.69568 38093 ft 442 kts 238°
2026-05-05 12:24 28.91086 -53.75421 38086 ft 443 kts 238°
2026-05-05 12:25 28.87677 -53.81272 38093 ft 443 kts 238°
2026-05-05 12:25 28.84262 -53.87124 38092 ft 443 kts 238°
2026-05-05 12:26 28.80866 -53.92934 38092 ft 444 kts 238°
2026-05-05 12:26 28.77437 -53.98793 38095 ft 444 kts 238°
2026-05-05 12:27 28.74010 -54.04640 38095 ft 444 kts 238°
2026-05-05 12:27 28.70582 -54.10481 38102 ft 443 kts 238°
2026-05-05 12:28 28.67156 -54.16312 38100 ft 443 kts 238°
2026-05-05 12:28 28.63745 -54.22105 38103 ft 444 kts 238°
2026-05-05 12:29 28.60308 -54.27937 38104 ft 444 kts 238°
2026-05-05 12:29 28.56868 -54.33766 38099 ft 444 kts 238°
2026-05-05 12:30 28.53425 -54.39592 38100 ft 444 kts 238°
2026-05-05 12:30 28.50005 -54.45369 38100 ft 444 kts 238°
2026-05-05 12:31 28.46558 -54.51187 38102 ft 444 kts 238°
2026-05-05 12:31 28.43111 -54.56998 38099 ft 444 kts 238°
2026-05-05 12:32 28.39661 -54.62802 38100 ft 444 kts 238°
2026-05-05 12:32 28.36226 -54.68578 38099 ft 444 kts 238°
2026-05-05 12:33 28.32768 -54.74380 38101 ft 443 kts 238°
2026-05-05 12:33 28.29313 -54.80167 38101 ft 443 kts 238°
2026-05-05 12:34 28.25852 -54.85964 38100 ft 444 kts 238°
2026-05-05 12:34 28.22414 -54.91710 38100 ft 443 kts 238°
2026-05-05 12:35 28.18958 -54.97477 38101 ft 442 kts 238°
2026-05-05 12:35 28.15498 -55.03246 38100 ft 442 kts 238°
2026-05-05 12:36 28.12039 -55.09005 38099 ft 442 kts 238°
2026-05-05 12:36 28.08600 -55.14723 38102 ft 442 kts 237°
2026-05-05 12:37 28.05138 -55.20468 38100 ft 442 kts 237°
2026-05-05 12:37 28.01672 -55.26215 38101 ft 442 kts 237°
2026-05-05 12:38 27.98206 -55.31954 38102 ft 442 kts 237°
2026-05-05 12:38 27.94731 -55.37705 38102 ft 444 kts 237°
2026-05-05 12:39 27.91260 -55.43437 38101 ft 445 kts 237°
2026-05-05 12:39 27.87766 -55.49198 38107 ft 445 kts 237°
2026-05-05 12:40 27.86015 -55.52082 38263 ft 445 kts 237°
2026-05-05 12:40 27.84265 -55.54963 38481 ft 443 kts 237°
2026-05-05 12:40 27.82522 -55.57830 38676 ft 443 kts 237°
2026-05-05 12:40 27.80780 -55.60697 38865 ft 442 kts 237°
2026-05-05 12:41 27.79062 -55.63519 39086 ft 441 kts 237°
2026-05-05 12:41 27.77327 -55.66367 39261 ft 440 kts 237°
2026-05-05 12:41 27.75594 -55.69211 39410 ft 440 kts 237°
2026-05-05 12:41 27.73859 -55.72058 39580 ft 439 kts 237°
2026-05-05 12:42 27.72128 -55.74896 39723 ft 439 kts 237°
2026-05-05 12:42 27.70396 -55.77732 39852 ft 439 kts 237°
2026-05-05 12:42 27.66925 -55.83410 40052 ft 440 kts 237°
2026-05-05 12:43 27.63473 -55.89052 40101 ft 440 kts 237°
2026-05-05 12:43 27.59998 -55.94724 40100 ft 439 kts 237°
2026-05-05 12:44 27.56525 -56.00386 40100 ft 439 kts 237°
2026-05-05 12:44 27.53047 -56.06048 40100 ft 439 kts 237°
2026-05-05 12:45 27.49591 -56.11666 40100 ft 439 kts 237°
2026-05-05 12:45 27.46110 -56.17318 40101 ft 439 kts 237°
2026-05-05 12:46 27.42630 -56.22963 40109 ft 439 kts 237°
2026-05-05 12:46 27.39132 -56.28627 40109 ft 440 kts 237°
2026-05-05 12:47 27.35662 -56.34241 40109 ft 440 kts 237°
2026-05-05 12:47 27.32159 -56.39899 40111 ft 440 kts 237°
2026-05-05 12:48 27.28655 -56.45552 40109 ft 441 kts 237°
2026-05-05 12:48 27.25148 -56.51203 40109 ft 441 kts 237°
2026-05-05 12:49 27.21634 -56.56858 40109 ft 441 kts 237°
2026-05-05 12:49 27.18139 -56.62474 40109 ft 441 kts 237°
2026-05-05 12:50 27.14620 -56.68124 40109 ft 441 kts 237°
2026-05-05 12:50 27.11101 -56.73764 40110 ft 442 kts 237°
2026-05-05 12:51 27.07573 -56.79413 40109 ft 442 kts 237°
2026-05-05 12:51 27.04063 -56.85025 40110 ft 442 kts 237°
2026-05-05 12:52 27.00523 -56.90679 40109 ft 443 kts 237°
2026-05-05 12:52 26.96983 -56.96325 40109 ft 443 kts 237°
2026-05-05 12:53 26.93441 -57.01967 40109 ft 443 kts 237°
2026-05-05 12:53 26.89922 -57.07567 40110 ft 443 kts 237°
2026-05-05 12:54 26.84595 -57.16027 40109 ft 443 kts 237°
2026-05-05 12:55 26.81043 -57.21662 40110 ft 443 kts 237°
2026-05-05 12:55 26.77507 -57.27262 40110 ft 444 kts 237°
2026-05-05 12:56 26.73942 -57.32902 40109 ft 444 kts 237°
2026-05-05 12:56 26.70374 -57.38539 40109 ft 444 kts 237°
2026-05-05 12:57 26.66802 -57.44176 40112 ft 444 kts 237°
2026-05-05 12:57 26.63229 -57.49808 40109 ft 444 kts 237°
2026-05-05 12:58 26.59676 -57.55402 40110 ft 444 kts 237°
2026-05-05 12:58 26.56091 -57.61037 40109 ft 445 kts 237°
2026-05-05 12:59 26.52502 -57.66673 40110 ft 445 kts 237°
2026-05-05 12:59 26.48909 -57.72308 40112 ft 446 kts 237°
2026-05-05 13:00 26.43535 -57.80722 40109 ft 446 kts 237°
2026-05-05 13:01 26.36330 -57.91980 40109 ft 446 kts 237°
2026-05-05 13:01 26.33327 -57.96664 40109 ft 447 kts 237°
2026-05-05 13:02 26.29712 -58.02297 40109 ft 447 kts 237°
2026-05-05 13:02 26.25510 -58.08834 40109 ft 446 kts 237°
2026-05-05 13:03 26.21892 -58.14456 40110 ft 447 kts 237°
2026-05-05 13:03 26.18268 -58.20081 40109 ft 447 kts 237°
2026-05-05 13:04 26.14663 -58.25669 40109 ft 447 kts 237°
2026-05-05 13:04 26.11036 -58.31284 40110 ft 446 kts 237°
2026-05-05 13:05 26.07418 -58.36878 40109 ft 446 kts 237°
2026-05-05 13:05 26.03794 -58.42475 40109 ft 446 kts 237°
2026-05-05 13:06 26.00774 -58.47135 40111 ft 446 kts 237°
2026-05-05 13:06 25.96556 -58.53633 40110 ft 447 kts 237°
2026-05-05 13:07 25.92915 -58.59237 40109 ft 447 kts 237°
2026-05-05 13:07 25.89268 -58.64842 40109 ft 447 kts 237°
2026-05-05 13:08 25.86239 -58.69492 40109 ft 447 kts 237°
2026-05-05 13:08 25.81997 -58.75997 40109 ft 447 kts 236°
2026-05-05 13:09 25.78344 -58.81591 40109 ft 447 kts 236°
2026-05-05 13:09 25.75314 -58.86226 40111 ft 446 kts 236°
2026-05-05 13:10 25.71667 -58.91798 40109 ft 446 kts 236°
2026-05-05 13:10 25.68017 -58.97369 40109 ft 446 kts 236°
2026-05-05 13:11 25.64371 -59.02927 40109 ft 446 kts 236°
2026-05-05 13:11 25.60748 -59.08444 40110 ft 445 kts 236°
2026-05-05 13:12 25.57102 -59.13989 40112 ft 445 kts 236°
2026-05-05 13:12 25.53458 -59.19524 40109 ft 445 kts 236°
2026-05-05 13:13 25.49808 -59.25063 40109 ft 445 kts 236°
2026-05-05 13:13 25.46162 -59.30588 40109 ft 444 kts 236°
2026-05-05 13:14 25.42540 -59.36070 40110 ft 444 kts 236°
2026-05-05 13:14 25.38891 -59.41587 40118 ft 444 kts 236°
2026-05-05 13:15 25.35247 -59.47091 40130 ft 444 kts 236°
2026-05-05 13:15 25.31601 -59.52590 40118 ft 443 kts 236°
2026-05-05 13:16 25.27949 -59.58093 40118 ft 444 kts 236°
2026-05-05 13:16 25.24320 -59.63555 40118 ft 444 kts 236°
2026-05-05 13:17 25.20661 -59.69054 40118 ft 444 kts 236°
2026-05-05 13:17 25.16999 -59.74553 40118 ft 444 kts 236°
2026-05-05 13:18 25.13336 -59.80046 40118 ft 444 kts 236°
2026-05-05 13:18 25.09692 -59.85505 40119 ft 445 kts 236°
2026-05-05 13:19 25.06014 -59.91008 40118 ft 446 kts 236°
2026-05-05 13:19 25.02335 -59.96507 40118 ft 446 kts 236°
2026-05-05 13:20 24.98627 -60.01987 40119 ft 447 kts 234°
2026-05-05 13:20 24.94605 -60.07148 40129 ft 446 kts 231°
2026-05-05 13:21 24.90462 -60.12224 40133 ft 445 kts 231°
2026-05-05 13:21 24.86356 -60.17339 40126 ft 446 kts 231°
2026-05-05 13:22 24.82283 -60.22485 40130 ft 446 kts 232°
2026-05-05 13:22 24.78242 -60.27610 40128 ft 446 kts 232°
2026-05-05 13:23 24.74170 -60.32767 40128 ft 446 kts 232°
2026-05-05 13:23 24.70094 -60.37921 40125 ft 447 kts 232°
2026-05-05 13:24 24.66008 -60.43080 40128 ft 447 kts 232°
2026-05-05 13:24 24.61915 -60.48241 40130 ft 447 kts 232°
2026-05-05 13:25 24.57853 -60.53357 40127 ft 447 kts 232°
2026-05-05 13:25 24.53760 -60.58508 40125 ft 447 kts 232°
2026-05-05 13:26 24.49668 -60.63653 40125 ft 447 kts 231°
2026-05-05 13:26 24.45573 -60.68794 40130 ft 447 kts 231°
2026-05-05 13:27 24.41507 -60.73894 40125 ft 447 kts 231°
2026-05-05 13:27 24.37408 -60.79030 40126 ft 447 kts 231°
2026-05-05 13:28 24.33313 -60.84155 40125 ft 446 kts 231°
2026-05-05 13:28 24.29220 -60.89273 40130 ft 446 kts 231°
2026-05-05 13:29 24.25156 -60.94349 40125 ft 446 kts 231°
2026-05-05 13:29 24.21061 -60.99458 40132 ft 446 kts 231°
2026-05-05 13:30 24.16969 -61.04558 40126 ft 445 kts 231°
2026-05-05 13:30 24.12877 -61.09653 40125 ft 445 kts 231°
2026-05-05 13:31 24.08817 -61.14703 40130 ft 445 kts 231°
2026-05-05 13:31 24.04726 -61.19785 40128 ft 445 kts 231°
2026-05-05 13:32 24.00639 -61.24858 40127 ft 444 kts 231°
2026-05-05 13:32 23.96549 -61.29929 40129 ft 445 kts 231°
2026-05-05 13:33 23.92441 -61.35018 40136 ft 447 kts 231°
2026-05-05 13:33 23.88351 -61.40078 40137 ft 447 kts 231°
2026-05-05 13:34 23.84234 -61.45166 40138 ft 447 kts 231°
2026-05-05 13:34 23.80116 -61.50250 40137 ft 447 kts 231°
2026-05-05 13:35 23.75997 -61.55330 40137 ft 446 kts 231°
2026-05-05 13:35 23.71888 -61.60393 40138 ft 446 kts 231°
2026-05-05 13:36 23.67799 -61.65426 40137 ft 446 kts 231°